Theta_e
356 355 357 357 360 354 360 359 350 351 350 344 344 348 350 349 350 352 342 343 346 346 344 343 349 351 351 349 345 340 345 346 350 351 351 352 351 352 351 353 352 351 351 351 348 352 353 352 349
357 357 358 361 354 360 361 356 354 350 344 343 344 346 346 348 343 343 344 343 347 346 345 344 346 350 352 348 350 350 352 351 346 346 345 348 349 352 350 353 349 349 351 353 351 353 352 348 342
355 358 362 362 356 357 357 350 347 344 342 342 345 343 344 345 342 342 343 345 347 347 345 346 345 343 351 352 352 347 346 347 347 348 348 351 350 351 351 352 348 350 352 352 352 353 349 347 347
356 358 361 359 356 353 350 349 345 344 343 342 342 346 342 341 342 343 344 347 348 347 345 349 352 348 351 348 346 345 342 342 342 344 346 352 351 354 353 352 351 350 353 351 353 352 347 343 344
356 363 365 355 356 348 346 347 345 347 345 340 339 346 345 341 340 341 345 348 348 350 345 349 352 351 350 347 350 347 343 347 345 344 345 351 349 353 352 352 351 353 353 352 352 352 350 341 341
365 362 356 358 357 352 347 347 347 349 341 340 341 343 342 339 339 341 345 348 348 350 345 346 349 352 348 353 350 348 348 347 347 351 348 349 352 351 353 352 353 352 352 353 352 351 350 344 340
362 366 358 357 358 355 350 352 349 345 341 339 338 341 337 337 339 344 346 346 350 351 344 349 350 353 352 349 349 345 345 349 351 351 349 346 350 351 349 353 353 352 354 354 352 351 344 345 343
363 366 356 350 358 356 350 351 349 344 343 339 341 346 340 337 340 343 346 346 351 350 346 349 350 351 348 350 351 344 345 347 351 344 343 349 347 353 353 351 351 354 353 352 353 352 343 343 343
358 369 354 352 352 354 350 352 350 345 344 343 342 342 337 337 341 343 345 349 349 347 346 348 348 352 346 342 342 346 347 343 342 343 342 345 343 345 346 346 347 353 353 353 353 349 343 342 341
361 361 351 349 348 350 349 351 350 346 343 343 344 340 338 341 342 345 346 345 348 349 347 342 344 346 344 339 343 346 341 340 340 342 343 342 341 345 346 344 345 346 352 353 352 349 346 341 340
354 357 349 350 348 349 349 349 348 344 344 343 346 342 342 342 342 346 346 345 347 346 345 346 344 346 346 343 340 338 337 339 341 341 341 342 346 347 347 347 346 343 348 343 344 346 342 342 345
356 352 352 350 353 350 351 347 346 345 345 343 342 341 342 342 342 345 347 345 346 346 348 349 350 347 350 349 337 339 341 346 348 348 348 348 348 348 347 347 348 343 342 342 339 337 334 335 340
352 348 348 350 353 351 350 350 349 348 346 343 342 342 342 342 342 344 347 346 347 347 347 349 349 348 350 353 350 347 349 349 348 349 349 350 349 349 348 348 347 346 345 343 345 346 346 345 343
350 349 349 346 345 350 350 352 349 346 343 344 344 342 341 341 342 344 346 347 347 347 346 347 349 349 349 350 350 347 350 349 349 348 349 350 348 348 348 348 348 346 347 347 347 347 347 346 346
349 350 348 347 352 354 347 345 354 344 343 343 342 341 341 341 343 345 345 345 347 347 345 345 347 346 347 349 350 349 349 350 349 348 348 350 349 348 349 349 347 347 346 347 347 347 346 346 345
352 352 352 349 351 353 346 350 350 343 343 343 342 341 341 341 342 343 345 344 345 344 345 345 345 346 348 349 349 349 349 348 349 349 350 349 348 348 347 346 347 345 348 348 346 346 344 345 347
351 352 351 350 348 348 348 356 353 345 344 344 342 342 342 341 341 342 342 344 343 343 345 346 346 347 350 350 350 351 351 351 350 350 349 348 349 350 349 346 344 347 349 348 343 346 349 348 348
351 355 347 347 348 348 353 355 351 350 344 344 343 343 342 341 340 339 339 344 343 344 345 345 349 349 350 348 347 350 350 351 349 349 347 349 351 351 348 350 348 350 350 350 349 350 350 351 351
345 344 346 345 345 346 345 347 354 350 345 344 344 343 342 342 340 340 340 340 343 344 345 346 350 349 347 348 348 348 350 350 350 348 349 349 351 352 351 350 348 347 346 351 351 351 352 352 352
342 343 347 347 344 345 345 345 347 353 347 345 344 344 344 343 340 340 340 342 343 344 345 346 349 349 347 348 350 350 349 350 346 350 351 351 351 353 352 351 352 352 352 353 352 353 350 348 347
342 342 345 347 345 341 344 357 358 353 350 346 345 344 343 343 342 341 340 343 345 344 345 346 348 349 348 349 350 352 351 351 351 350 348 351 351 354 353 350 351 352 352 351 350 349 348 349 350
343 343 344 344 343 345 344 364 352 351 352 351 347 346 344 343 342 342 341 343 347 346 346 346 347 349 349 350 351 351 349 351 352 350 349 350 354 351 353 353 352 351 351 349 349 349 350 350 346
335 330 341 344 331 328 333 349 352 349 355 352 347 347 345 343 342 343 342 343 347 348 347 347 347 348 349 350 350 351 351 350 351 350 350 351 354 350 349 353 351 352 353 351 350 351 350 348 346
324 322 320 323 323 325 328 330 334 349 351 352 345 341 346 344 342 344 343 344 348 350 349 350 349 349 349 349 351 353 353 349 351 352 351 348 345 349 351 353 355 352 350 349 350 349 348 345 343
318 315 317 320 324 325 322 327 327 340 346 350 348 342 345 342 343 344 344 345 348 351 350 352 350 350 350 351 353 354 351 349 352 352 352 347 345 349 350 353 354 351 350 350 350 347 345 340 335
319 315 316 321 318 318 317 325 331 338 342 344 344 343 344 342 343 343 344 345 349 350 351 353 355 353 353 358 357 355 355 351 355 353 352 345 345 343 346 354 352 351 350 349 347 344 340 337 331
319 319 315 314 315 317 317 320 336 339 345 344 342 343 342 341 345 343 344 344 348 350 351 350 355 355 354 354 355 356 356 353 354 353 351 350 349 349 349 353 351 350 349 347 342 339 337 333 331
322 318 318 312 318 320 318 319 323 340 342 338 339 338 341 342 340 344 345 345 346 350 351 352 351 353 354 355 353 355 357 355 352 354 352 350 350 350 352 351 350 350 347 343 339 336 333 331 329
325 326 318 312 313 315 316 318 317 333 337 335 337 338 342 345 345 342 345 346 346 349 351 354 353 353 356 356 355 355 358 357 354 354 352 351 352 352 352 350 350 348 345 342 337 335 332 330 326
325 327 317 324 327 316 313 316 323 328 335 335 335 340 340 339 340 340 346 346 347 350 350 353 355 355 356 357 357 356 355 360 357 354 353 352 354 352 351 351 349 346 344 339 335 335 333 329 324
Wind_Speed
10 7 6 3 2 3 2 5 7 11 6 1 6 6 7 4 2 4 15 18 14 16 17 17 18 16 16 16 15 15 13 14 13 14 15 14 14 12 10 9 11 9 8 8 8 9 10 12 14
14 9 4 2 4 3 3 5 6 4 4 9 8 13 7 3 4 8 15 22 17 17 18 19 19 18 15 16 15 13 11 11 11 11 12 12 12 11 9 7 8 8 7 7 8 10 10 11 12
13 8 2 1 2 2 4 3 8 9 10 5 5 3 4 10 8 18 18 23 19 19 18 18 21 18 17 15 15 12 11 11 11 9 9 9 9 10 9 7 7 7 8 8 8 9 11 12 13
5 1 3 2 4 2 4 8 12 11 7 6 12 7 4 3 17 16 28 24 21 18 19 18 19 20 19 15 14 14 11 10 10 9 10 8 9 8 8 8 7 7 8 10 10 9 11 12 12
2 1 2 4 3 4 8 13 10 10 5 10 4 5 4 11 7 23 28 24 22 17 18 17 18 18 18 17 14 14 13 11 10 10 11 10 8 7 7 7 8 8 8 8 9 9 11 11 10
2 1 3 4 5 6 7 11 11 7 10 13 11 10 4 7 21 27 28 25 20 24 22 19 17 17 18 16 14 12 11 11 10 11 11 8 8 7 7 8 8 9 10 9 8 9 9 9 9
4 2 2 6 7 6 8 4 7 15 13 8 18 9 6 12 24 26 27 24 22 24 23 21 19 17 16 15 14 13 11 11 12 10 9 9 9 8 8 8 8 9 9 10 9 8 8 8 8
2 3 3 5 9 2 11 9 10 15 14 17 14 6 9 22 31 29 27 22 26 23 23 23 21 19 17 15 13 12 12 12 10 10 10 9 8 7 8 9 8 9 9 9 9 8 9 7 8
2 2 2 5 6 6 14 10 14 10 15 11 12 6 19 32 27 29 21 23 24 23 25 24 23 20 17 15 13 13 12 12 10 9 10 9 8 8 9 8 9 10 9 9 9 8 7 7 8
2 2 6 7 6 10 12 16 17 9 14 5 6 15 27 26 26 26 27 23 26 24 26 26 23 21 18 17 15 15 13 11 11 10 11 9 8 8 8 9 10 11 12 11 10 9 9 7 7
7 5 4 4 4 5 10 17 16 15 13 12 20 23 19 22 20 22 27 30 30 30 28 28 26 23 21 20 17 15 14 12 11 10 10 10 7 6 10 10 10 10 14 12 11 11 11 9 6
5 11 12 7 7 7 9 9 10 17 9 17 23 27 20 16 15 17 23 26 27 28 29 29 26 25 21 18 18 16 15 13 13 9 9 10 8 7 12 11 11 11 14 14 13 12 10 10 8
8 7 13 11 6 8 6 7 9 13 13 22 20 22 20 15 17 19 22 30 29 30 28 31 28 26 21 21 18 16 16 14 11 10 11 10 10 11 13 13 11 11 11 11 11 9 9 11 10
6 8 10 15 7 5 5 2 8 5 23 23 24 21 19 18 21 23 25 26 32 34 32 29 30 26 25 22 20 19 15 12 14 15 14 13 11 13 16 15 13 15 11 10 9 9 10 8 8
10 4 6 3 5 3 5 4 3 16 23 25 23 21 20 20 26 25 28 27 34 36 36 32 32 29 25 24 23 23 18 15 12 12 16 14 11 11 16 16 12 10 12 10 10 8 7 8 9
2 4 2 7 6 2 9 8 11 13 20 22 23 20 21 21 26 28 30 31 34 30 37 35 28 27 27 24 24 22 21 16 14 10 14 12 10 8 13 16 16 12 9 9 10 9 8 8 9
5 3 5 3 8 6 4 5 21 6 18 20 19 20 19 18 22 29 31 36 35 37 36 36 33 33 32 29 24 20 17 16 12 13 13 10 10 7 9 11 13 12 10 9 8 8 8 7 7
6 4 4 3 5 11 7 8 17 16 18 20 19 19 19 18 20 29 30 38 37 39 39 38 35 36 33 29 23 19 16 16 15 13 12 11 9 7 6 9 11 11 8 8 10 7 5 6 5
6 4 6 2 7 3 7 10 15 17 12 18 17 18 19 19 16 25 27 35 36 38 36 38 36 37 36 28 23 19 18 16 17 14 10 14 11 10 7 8 8 9 10 8 8 7 6 4 5
6 5 4 3 7 2 10 8 11 15 14 21 21 20 19 18 12 17 24 29 33 37 39 38 40 40 38 30 26 21 19 15 12 11 13 14 12 12 9 8 7 6 7 8 8 7 4 2 3
6 9 9 7 8 6 4 3 5 7 4 15 17 19 17 18 17 16 19 27 31 35 39 40 39 39 37 31 27 20 17 12 14 17 20 17 14 12 10 9 7 8 9 8 7 6 4 3 2
6 16 13 12 4 5 6 4 6 2 3 7 14 13 17 17 17 18 19 21 31 35 40 40 38 38 37 32 31 26 23 15 17 23 22 18 17 13 12 10 10 9 9 7 7 7 5 3 1
10 10 13 16 8 3 5 5 6 6 6 10 16 14 19 21 19 19 20 29 33 34 37 39 40 39 38 34 30 28 25 20 18 22 20 20 18 16 15 11 10 10 8 7 8 8 6 4 3
3 5 7 4 4 4 7 4 4 7 18 19 14 10 11 13 17 20 30 28 30 33 35 37 41 41 40 36 32 30 26 24 21 23 22 20 20 18 16 12 10 9 8 8 7 7 5 2 2
7 7 4 5 5 5 5 2 11 17 20 22 24 19 13 5 18 18 19 19 26 32 34 36 40 37 41 39 36 33 28 27 25 26 25 22 22 20 15 15 12 11 8 8 7 5 4 2 1
5 8 5 2 1 6 4 3 6 10 10 16 13 2 7 9 12 20 21 25 29 33 36 35 37 35 38 41 37 35 28 27 26 27 24 23 21 21 18 18 16 13 9 8 8 7 5 4 3
4 1 6 7 3 3 3 7 9 8 3 2 3 2 4 6 8 19 21 29 29 34 37 39 39 37 40 43 40 36 32 31 29 29 25 22 20 20 21 20 19 15 12 10 8 8 8 7 4
3 3 3 4 2 1 6 5 5 2 10 5 9 8 8 6 8 8 15 26 30 35 38 38 41 42 45 43 42 40 36 33 32 29 28 25 23 22 23 23 20 16 13 11 9 10 10 7 6
7 8 5 5 4 5 2 6 7 11 8 9 4 12 9 10 5 11 17 27 31 33 35 37 39 37 35 39 39 36 39 37 32 32 30 27 25 26 29 27 22 18 16 14 13 13 10 7 5
3 2 4 5 7 1 4 5 5 15 8 10 9 15 12 22 26 12 17 26 28 31 35 36 37 37 42 43 40 40 38 38 36 34 31 29 26 29 32 28 22 18 15 14 15 15 11 8 7
Wind_Direction
173 184 212 277 342 66 16 53 118 129 150 79 145 158 154 76 155 168 147 152 145 141 138 140 140 137 136 131 129 122 118 116 114 117 118 113 112 112 109 108 107 109 109 107 114 111 107 112 114
167 169 228 274 80 72 16 144 152 184 116 114 99 124 126 122 121 118 132 158 150 149 150 151 148 147 144 139 129 120 121 119 121 127 125 121 117 115 122 119 107 108 122 118 120 119 119 116 121
160 177 272 244 112 108 143 162 125 123 152 169 119 74 103 133 124 147 156 162 155 155 157 156 153 153 149 143 135 128 127 132 138 139 137 131 125 125 135 123 110 118 128 133 127 133 133 123 116
176 288 260 55 124 93 125 157 147 156 186 195 116 77 49 114 145 157 157 154 154 161 159 157 154 157 154 150 147 142 144 147 148 152 140 140 134 141 144 135 131 132 136 134 137 140 141 134 125
321 182 270 68 69 100 143 156 171 163 120 109 103 89 74 139 137 149 155 158 155 168 159 154 152 156 155 150 153 153 149 153 152 152 147 153 148 163 165 149 149 146 150 145 146 144 145 149 142
261 294 65 133 135 136 153 163 187 162 107 108 100 105 165 200 161 165 163 165 168 169 164 161 161 160 158 153 161 157 151 155 164 162 156 152 161 159 162 158 159 157 156 156 158 152 154 152 151
126 58 295 116 154 177 184 205 172 147 138 134 131 120 165 174 179 171 173 170 179 176 169 166 167 169 165 162 165 158 161 161 168 163 159 161 167 161 167 168 168 164 165 162 164 160 161 150 138
92 91 297 142 193 184 173 173 176 170 155 137 141 168 174 194 182 179 176 183 179 179 176 174 175 173 171 163 174 164 170 165 164 169 165 167 159 170 175 183 179 180 183 171 170 169 158 144 130
316 64 222 170 152 137 155 188 173 184 138 185 186 144 170 179 174 175 175 168 177 179 179 180 177 180 171 172 173 174 179 164 165 180 165 168 161 173 185 189 190 187 190 183 173 174 170 154 133
213 336 231 180 157 148 181 159 174 147 166 172 113 121 162 167 163 163 163 164 170 176 185 186 185 181 179 179 175 185 180 172 177 184 172 179 184 189 186 187 200 203 191 189 183 174 174 166 153
341 345 295 32 127 150 140 154 173 154 186 172 150 152 167 169 171 158 165 169 176 183 185 190 188 184 183 184 181 187 176 178 179 186 184 193 187 195 204 203 201 206 198 199 188 183 179 187 179
157 310 18 318 342 132 167 169 165 171 191 162 156 159 162 171 173 164 164 177 175 182 184 193 191 186 186 187 187 188 186 187 189 201 203 225 232 237 219 214 209 210 201 207 206 207 205 202 207
85 15 319 304 82 357 187 196 177 199 144 143 147 157 165 170 175 174 174 182 180 183 197 195 195 191 192 201 197 198 198 199 205 206 219 221 242 240 220 224 215 204 201 212 219 216 220 223 216
163 152 262 300 350 335 327 227 129 137 138 144 152 163 167 175 183 177 178 177 184 192 186 191 189 193 200 207 207 208 201 211 223 219 216 217 221 213 214 214 218 208 213 218 248 230 237 250 212
138 133 319 320 317 318 356 297 101 148 148 154 160 166 172 183 188 187 191 188 189 194 193 194 192 199 194 199 209 207 200 197 219 214 210 213 217 218 215 216 208 198 211 207 218 213 218 217 232
74 110 103 271 295 274 79 345 347 157 158 163 167 172 178 186 192 195 196 198 200 198 202 199 202 195 191 188 191 192 202 201 206 209 212 227 233 228 219 216 215 214 198 204 219 219 238 247 249
18 118 232 299 235 251 101 79 267 238 178 171 176 180 185 193 198 203 201 200 201 203 204 199 196 190 190 188 189 191 193 196 207 217 219 222 215 205 210 215 209 208 208 216 225 216 231 242 255
208 213 209 7 276 191 164 190 209 248 190 182 179 185 191 195 201 201 188 192 194 200 203 194 189 193 191 194 196 195 199 211 215 206 221 218 216 196 184 193 193 205 207 223 220 223 238 248 269
182 181 118 247 255 211 246 226 203 237 183 191 187 187 191 198 199 192 186 181 182 189 186 188 188 195 194 191 189 195 198 218 219 225 227 206 219 197 183 183 181 200 209 216 225 230 229 242 262
171 138 187 238 260 194 286 271 222 205 191 188 189 194 193 191 186 186 180 177 180 178 184 185 192 196 196 191 194 201 204 213 211 223 245 214 206 200 195 188 184 192 214 230 210 207 196 209 221
214 188 192 216 210 252 174 355 279 204 185 198 200 192 193 192 187 179 180 176 181 181 185 186 190 192 195 195 193 199 207 212 204 204 211 216 200 187 204 192 201 228 220 206 193 198 198 198 210
219 223 211 253 160 228 124 234 260 154 215 187 208 194 196 198 195 180 179 170 181 184 189 191 193 193 195 195 194 198 196 201 197 199 199 204 191 187 191 195 192 201 202 194 183 177 178 194 221
226 246 230 241 197 119 343 88 264 86 238 224 224 199 196 198 183 183 181 178 180 180 184 191 194 196 195 196 199 199 197 205 194 191 200 195 196 197 196 199 196 200 201 193 182 173 188 195 146
243 26 22 52 74 22 254 124 255 196 210 219 219 214 204 201 189 187 183 178 175 177 180 186 190 193 196 197 200 203 203 199 194 198 199 196 194 195 197 194 193 192 190 187 188 185 188 195 182
74 57 358 4 12 224 3 120 239 216 210 206 216 226 205 193 185 184 177 173 173 173 177 184 189 189 196 199 200 203 201 200 202 204 202 196 196 203 200 193 197 195 197 190 195 205 213 192 153
199 138 148 201 258 268 321 306 275 297 220 195 226 167 181 199 202 182 181 176 178 177 177 182 187 189 190 195 198 199 205 205 208 205 208 205 210 212 201 192 193 201 208 211 217 215 201 168 122
249 149 187 120 40 48 286 310 320 28 329 234 257 207 161 243 200 188 183 181 178 178 183 185 187 191 192 199 201 202 204 207 207 208 208 209 209 202 193 196 201 205 208 208 205 190 174 171 158
358 182 43 11 136 261 294 297 242 223 217 220 222 232 158 186 182 185 188 185 184 183 188 190 191 191 199 201 204 205 204 207 210 208 209 212 212 210 200 200 204 196 191 191 202 191 177 190 164
352 23 23 113 118 164 206 300 231 250 210 171 219 151 159 180 199 190 189 195 189 185 186 190 191 193 196 199 202 201 204 208 209 211 211 215 216 212 206 201 195 192 198 202 198 187 182 193 181
159 54 109 91 307 29 152 271 357 332 168 174 183 144 159 155 210 204 197 187 188 186 189 189 192 192 198 202 200 203 206 207 210 210 212 211 213 202 199 195 199 201 205 199 196 189 193 203 205